Regional Weather Roundup
Issued by NWS

Home | Current Version | Previous Version | Graphics & Text | Print | Product List | Glossary On
Versions: 1 2 3 4 5 6 7 8 9 10 11 12 13 14 15 16 17 18 19 20 21 22 23 24 25 26 27 28 29 30 31 32 33 34 35 36 37 38 39 40 41 42 43 44 45 46 47 48 49 50
377
ASUS44 KJAN 251210
RWRMS

MISSISSIPPI HOURLY WEATHER ROUNDUP
NATIONAL WEATHER SERVICE JACKSON MS
700 AM CDT SAT OCT 25 2014

NOTE: "FAIR: INDICATES FEW OR NO CLOUDS BELOW 12,000 FEET WITH NO
SIGNIFICANT WEATHER AND/OR OBSTRUCTIONS TO VISIBILITY.

MSZ001>002-007>008-010>013-018>021-025>028-034>036-251300-
NORTHWEST MISSISSIPPI

CITY           SKY/WX    TMP DP  RH WIND       PRES   REMARKS
CLARKSDALE     FAIR      54  54 100 CALM      30.12S
CLEVELAND      FAIR      53  53 100 CALM      30.12S
GREENWOOD      CLEAR     48  46  93 CALM      30.13R
6HR MIN TEMP:  48; 6HR MAX TEMP:  50;

GREENVILLE     CLEAR     53  51  93 CALM      30.12R
6HR MIN TEMP:  52; 6HR MAX TEMP:  57;

GRENADA          N/A    N/A N/A N/A MISG        N/A
OLIVE BRANCH   CLEAR     52  52 100 CALM      30.10S
OXFORD         FAIR      48  46  93 CALM      30.13S
TUNICA         SUNNY     50  50 100 S5        30.11S FOG
$$

MSZ003>006-009-014>017-022>024-029>033-037>039-251300-
NORTHEAST MISSISSIPPI

CITY           SKY/WX    TMP DP  RH WIND       PRES   REMARKS
COLUMBUS AFB   CLEAR     44  43  98 CALM      30.13R
6HR MIN TEMP:  44; 6HR MAX TEMP:  47;

CORINTH        CLOUDY    50  48  93 CALM      30.11R
GOLDN TRIANGLE CLEAR     46  41  81 CALM      30.12R
STARKVILLE     FAIR      45  43  93 CALM      30.12S
TUPELO         CLEAR     50  47  89 CALM      30.11S
6HR MIN TEMP:  49; 6HR MAX TEMP:  53;

$$

MSZ040-058-251300-
CENTRAL MISSISSIPPI

CITY           SKY/WX    TMP DP  RH WIND       PRES   REMARKS
JACKSON INTL   CLEAR     47  45  93 CALM      30.14R
6HR MIN TEMP:  46; 6HR MAX TEMP:  49;

JACKSON HAWKNS CLEAR     48  46  93 CALM      30.14S
6HR MIN TEMP:  48; 6HR MAX TEMP:  54;

MERIDIAN KEY   CLEAR     44  41  89 CALM      30.13S
6HR MIN TEMP:  43; 6HR MAX TEMP:  46;

MERIDIAN NAS   CLEAR     46  44  93 CALM      30.12S FOG
6HR MIN TEMP:  45; 6HR MAX TEMP:  49;

RAYMOND        FAIR      45  39  81 MISG      30.15R FOG
VICKSBURG      CLEAR     45  43  93 CALM      30.15R
6HR MIN TEMP:  43; 6HR MAX TEMP:  48;

$$

MSZ059>079-251300-
SOUTH MISSISSIPPI

CITY           SKY/WX    TMP DP  RH WIND       PRES   REMARKS
BROOKHAVEN     FAIR      45  45 100 CALM      30.16R
COLUMBIA         N/A    N/A N/A N/A MISG        N/A
HATTIESBURG    CLEAR     45  44  97 CALM      30.14R
6HR MIN TEMP:  45; 6HR MAX TEMP:  49;

MCCOMB         CLEAR     48  44  86 NW3       30.13R
6HR MIN TEMP:  47; 6HR MAX TEMP:  57;

NATCHEZ        CLEAR     46  43  87 CALM      30.15R
6HR MIN TEMP:  46; 6HR MAX TEMP:  48;

PINE BELT      CLEAR     45  41  87 CALM      30.14R
6HR MIN TEMP:  45; 6HR MAX TEMP:  52;

$$

MSZ080>082-251300-
COASTAL MISSISSIPPI

CITY           SKY/WX    TMP DP  RH WIND       PRES   REMARKS
BAY ST LOUIS   CLEAR     45  41  87 CALM      30.12
BILOXI         CLEAR     54  47  79 N6        30.11R
6HR MIN TEMP:  53; 6HR MAX TEMP:  60;

PASCAGOULA     CLEAR     43  42  97 CALM      30.12R FOG
6HR MIN TEMP:  40; 6HR MAX TEMP:  47;

GULFPORT       CLEAR     49  46  90 CALM      30.11R
6HR MIN TEMP:  48; 6HR MAX TEMP:  54;

$$



USA.gov is the U.S. government's official web portal to all federal, state and local government web resources and services.